Regional Weather Roundup
Issued by NWS

Home | Current Version | Previous Version | Text Only | Print | Product List | Glossary Off
Versions: 1 2 3 4 5 6 7 8 9 10 11 12 13 14 15 16 17 18 19 20 21 22 23 24 25 26 27 28 29 30 31 32 33 34 35 36 37 38 39 40 41 42 43 44 45 46 47 48 49 50

000
ASUS43 KOAX 231410
RWRNE

WEATHER ROUNDUP FOR NEBRASKA
NATIONAL WEATHER SERVICE OMAHA NE
900 AM CDT MON OCT 23 2017

NOTES: SATELLITE DATA IS BEING USED TO AUGMENT CLOUD COVER ABOVE
       12000 FEET.
       "FAIR" INDICATES FEW OR NO CLOUDS BELOW 12,000 FEET WITH NO
       SIGNIFICANT WEATHER AND/OR OBSTRUCTIONS TO VISIBILITY.


NEZ001>004-019>022-054>056-231500-
NEBRASKA PANHANDLE

CITY           SKY/WX    TMP DP  RH WIND       PRES   REMARKS
SCOTTSBLUFF    MOCLDY    47  20  34 NW15      30.34R
ALLIANCE       CLOUDY    46  21  37 NW14      30.29R
CHADRON        CLEAR     44  22  41 W18       30.29R
GORDON         FAIR      41  30  66 NW10      30.24R
KIMBALL        CLOUDY    38  32  78 NW15      30.35S WCI  29
SIDNEY         CLOUDY    45  24  43 NW16G24   30.32R
$$

NEZ057>060-069>072-079>082-231500-
SOUTHWEST NEBRASKA

CITY           SKY/WX    TMP DP  RH WIND       PRES   REMARKS
NORTH PLATTE   CLOUDY    49  38  65 NW9       30.22R
IMPERIAL       CLOUDY    48  36  63 NW10      30.28R
LEXINGTON      CLOUDY    51  34  51 NW13      30.19R
MCCOOK         CLOUDY    51  37  58 NW21      30.21R
OGALLALA       CLOUDY    47  37  66 W3        30.27R
$$

NEZ005>010-023>029-035>040-094-231500-
NORTH CENTRAL NEBRASKA

CITY           SKY/WX    TMP DP  RH WIND       PRES   REMARKS
VALENTINE      PTCLDY    51  28  41 NW22G30   30.18R
AINSWORTH      CLEAR     50  29  43 NW23G29   30.15R
BROKEN BOW     CLOUDY    54  27  35 NW22G30   30.16R
O`NEILL        CLEAR     52  32  47 NW21G26   30.09R
ORD            MOSUNNY   54  30  40 NW18G29   30.11R
THEDFORD       CLOUDY    49  28  42 NW16G24   30.22R
$$

NEZ041-046>049-061>064-073>077-083>087-231500-
SOUTH CENTRAL NEBRASKA

CITY           SKY/WX    TMP DP  RH WIND       PRES   REMARKS
GRAND ISLAND   CLOUDY    58  34  40 NW25G32   30.10R
AURORA         CLOUDY    58  36  44 NW18G26   30.07R
HASTINGS       CLOUDY    57  34  41 NW21G31   30.10R
HEBRON         CLOUDY    59  40  48 NW10G18   30.05R
HOLDREGE       MOSUNNY   54  34  46 NW13G21   30.14R
KEARNEY        CLOUDY    56  31  38 NW22G28   30.13R
YORK           CLOUDY    59  39  47 NW23G32   30.03R
$$

NEZ011>018-030>034-042>045-231500-
NORTHEAST NEBRASKA

CITY           SKY/WX    TMP DP  RH WIND       PRES   REMARKS
NORFOLK        CLOUDY    55  34  45 NW25G36   30.01R
ALBION         CLOUDY    56  33  41 NW20G32   30.06R
BLAIR          PTSUNNY   58  40  51 NW15      29.95R
COLUMBUS       PTSUNNY   59  37  44 NW32G40   30.01R
FREMONT        CLOUDY    58  38  47 NW16G22   29.98R
TEKAMAH        CLOUDY    58  39  49 NW18G31   29.95R
WAYNE          CLOUDY    56  33  42 NW17G29   29.98S
$$

NEZ050>053-065>068-078-088>093-231500-
SOUTHEAST NEBRASKA

CITY           SKY/WX    TMP DP  RH WIND       PRES   REMARKS
LINCOLN        CLOUDY    60  39  45 NW14      30.00R
OMAHA EPPLEY   PTSUNNY   53  39  59 NW10      29.94R
BEATRICE       CLOUDY    55  43  62 NW10      30.00R
FALLS CITY     SUNNY     49  39  68 NW9       29.93R
NEBRASKA CITY  SUNNY     57  40  51 N13G22    29.94R
PLATTSMOUTH    SUNNY     58  40  51 NW12G17   29.93S
$$

NEZ044-045-051>053-067-231500-
OMAHA AREA

CITY           SKY/WX    TMP DP  RH WIND       PRES   REMARKS
OMAHA EPPLEY   PTSUNNY   53  39  59 NW10      29.94R
BLAIR          PTSUNNY   58  40  51 NW15      29.95R
FREMONT        CLOUDY    58  38  47 NW16G22   29.98R
MILLARD        CLOUDY    60  41  50 NW10      29.96R
OFFUTT AFB     LGT RAIN  57  39  51 N12G17    29.94R
PLATTSMOUTH    SUNNY     58  40  51 NW12G17   29.93S
WAHOO          PTSUNNY   60  37  43 N13G18    29.97R
$$



USA.gov is the U.S. government's official web portal to all federal, state and local government web resources and services.